• Join FlightAware (Why Join?)
  • Login
  • US Flag 
11:54PM EDT


 

Airport Tracker/Info


-or-


 

Live Flight TrackerFlight Track Log ✈ UAL5863 ✈ 27-Apr-2013 ✈ KORD - KOKC

Flight Track Log - Related Links

Times and Time Zones

All times are in EDT time to prevent confusion due to time zone crossing. See the UAL5863 flight status page for this flight to view local times or setup timezone preferences in your user account.

Time Position Orientation Groundspeed Altitude Reporting Facility
EDT Latitude Longitude Course Direction KTS MPH feet Rate Location/Type
01:18PM 41.9000 -87.9333 194° South 201 231 3,500  Level Chicago TRACON
01:19PM 41.8500 -87.9500 194° South 249 287 6,300 2,760 Climbing Chicago TRACON
01:20PM 41.8119 -87.9711 202° Southwest 242 278 7,800 2,220 Climbing Chicago Center
01:21PM 41.7450 -88.0058 201° Southwest 256 295 9,900 2,340 Climbing Chicago Center
01:22PM 41.6686 -88.0447 201° Southwest 290 334 12,600 2,220 Climbing Chicago Center
01:23PM 41.5917 -88.0842 201° Southwest 297 342 14,500 1,440 Climbing Chicago Center
01:24PM 41.4850 -88.1397 201° Southwest 351 404 15,600 1,320 Climbing Chicago Center
01:25PM 41.3925 -88.1867 201° Southwest 371 427 17,300 1,560 Climbing Chicago Center
01:26PM 41.2969 -88.2286 198° South 371 427 18,800 1,560 Climbing Chicago Center
01:27PM 41.2003 -88.2731 199° South 370 426 20,500 1,800 Climbing Chicago Center
01:28PM 41.0819 -88.3261 199° South 375 432 22,600 1,740 Climbing Chicago Center
01:29PM 40.9839 -88.3700 199° South 375 432 24,200 1,560 Climbing Chicago Center
01:30PM 40.8914 -88.4283 205° Southwest 371 427 25,900 1,560 Climbing Chicago Center
01:31PM 40.8122 -88.5144 219° Southwest 370 426 27,500 1,440 Climbing Chicago Center
01:32PM 40.7333 -88.5950 218° Southwest 362 417 28,900 1,320 Climbing Chicago Center
01:33PM 40.6561 -88.6761 219° Southwest 356 410 30,300 1,500 Climbing Chicago Center
01:34PM 40.5656 -88.7717 219° Southwest 352 405 32,000 1,500 Climbing Chicago Center
01:35PM 40.4892 -88.8489 218° Southwest 349 402 33,400 1,200 Climbing Chicago Center
01:36PM 40.4242 -88.9158 218° Southwest 342 394 34,500 1,020 Climbing Chicago Center
01:37PM 40.3497 -88.9933 218° Southwest 340 391 35,600 720 Climbing Chicago Center
01:38PM 40.2600 -89.0861 218° Southwest 342 394 36,000 180 Climbing Chicago Center
01:39PM 40.1789 -89.1669 217° Southwest 361 415 36,000  Level Chicago Center
01:40PM 40.1133 -89.2350 218° Southwest 366 421 36,000  Level Kansas City Center
01:41PM 40.0314 -89.3175 218° Southwest 369 425 36,000  Level Kansas City Center
01:42PM 39.9497 -89.3994 218° Southwest 370 426 36,000  Level Kansas City Center
01:43PM 39.8908 -89.5083 235° Southwest 373 429 36,000  Level Kansas City Center
01:44PM 39.8275 -89.6486 240° Southwest 372 428 36,000  Level Kansas City Center
01:45PM 39.7742 -89.7656 239° Southwest 373 429 36,000  Level Kansas City Center
01:46PM 39.7208 -89.8825 239° Southwest 374 430 36,000  Level Kansas City Center
01:47PM 39.6633 -90.0092 240° Southwest 378 435 36,000  Level Kansas City Center
01:48PM 39.6100 -90.1269 240° Southwest 379 436 36,000  Level Kansas City Center
01:49PM 39.5547 -90.2453 239° Southwest 382 440 36,000  Level Kansas City Center
01:50PM 39.5006 -90.3656 240° Southwest 387 445 36,000  Level Kansas City Center
01:51PM 39.4444 -90.4856 239° Southwest 390 449 36,000  Level Kansas City Center
01:53PM 39.3886 -90.6047 239° Southwest 391 450 36,000  Level Kansas City Center
01:54PM 39.3217 -90.7483 239° Southwest 391 450 36,000  Level Kansas City Center
01:55PM 39.2656 -90.8681 239° Southwest 392 451 36,000  Level Kansas City Center
01:56PM 39.2106 -90.9847 239° Southwest 387 445 36,000  Level Kansas City Center
01:57PM 39.1564 -91.1011 239° Southwest 382 440 36,000  Level Kansas City Center
01:58PM 39.1003 -91.2183 238° Southwest 387 445 36,000  Level Kansas City Center
01:59PM 39.0344 -91.3589 239° Southwest 386 444 36,000  Level Kansas City Center
02:00PM 38.9781 -91.4764 238° Southwest 387 445 36,000  Level Kansas City Center
02:01PM 38.9208 -91.5958 238° Southwest 392 451 36,000  Level Kansas City Center
02:02PM 38.8556 -91.7297 238° Southwest 396 456 36,000  Level Kansas City Center
02:03PM 38.7964 -91.8525 238° Southwest 402 463 36,000  Level Kansas City Center
02:04PM 38.7378 -91.9756 239° Southwest 404 465 36,000  Level Kansas City Center
02:05PM 38.6783 -92.0950 238° Southwest 400 460 36,000  Level Kansas City Center
02:06PM 38.6217 -92.2119 238° Southwest 392 451 36,000  Level Kansas City Center
02:07PM 38.5653 -92.3264 238° Southwest 384 442 36,000  Level Kansas City Center
02:08PM 38.4989 -92.4592 237° Southwest 374 430 36,000  Level Kansas City Center
02:09PM 38.4447 -92.5694 238° Southwest 369 425 36,000  Level Kansas City Center
02:10PM 38.3892 -92.6800 237° Southwest 370 426 36,000  Level Kansas City Center
02:11PM 38.3336 -92.7906 237° Southwest 371 427 36,000  Level Kansas City Center
02:12PM 38.2764 -92.9042 237° Southwest 377 434 36,000  Level Kansas City Center
02:13PM 38.2189 -93.0200 238° Southwest 385 443 36,000  Level Kansas City Center
02:14PM 38.1475 -93.1631 238° Southwest 396 456 36,000  Level Kansas City Center
02:15PM 38.0875 -93.2808 237° Southwest 398 458 36,000  Level Kansas City Center
02:16PM 38.0267 -93.4008 237° Southwest 401 461 36,000  Level Kansas City Center
02:17PM 37.9664 -93.5217 238° Southwest 404 465 36,000  Level Kansas City Center
02:18PM 37.9033 -93.6436 237° Southwest 411 473 36,000  Level Kansas City Center
02:19PM 37.8408 -93.7650 237° Southwest 412 474 36,000  Level Kansas City Center
02:20PM 37.7789 -93.8858 237° Southwest 410 472 36,000  Level Kansas City Center
02:21PM 37.7036 -94.0303 237° Southwest 409 471 36,000  Level Kansas City Center
02:22PM 37.6497 -94.1303 236° Southwest 410 472 36,000  Level Kansas City Center
02:23PM 37.5750 -94.2739 237° Southwest 408 470 36,000  Level Kansas City Center
02:25PM 37.5128 -94.3928 237° Southwest 406 467 36,000  Level Kansas City Center
02:26PM 37.4517 -94.5139 238° Southwest 408 470 36,000  Level Kansas City Center
02:27PM 37.3881 -94.6319 236° Southwest 408 470 36,000  Level Kansas City Center
02:28PM 37.3236 -94.7500 236° Southwest 408 470 36,000  Level Kansas City Center
02:29PM 37.2636 -94.8700 238° Southwest 407 468 36,000  Level Kansas City Center
02:30PM 37.2014 -94.9861 236° Southwest 404 465 36,000  Level Kansas City Center
02:31PM 37.1258 -95.1253 236° Southwest 402 463 36,000  Level Kansas City Center
02:32PM 37.0639 -95.2414 236° Southwest 402 463 36,000  Level Kansas City Center
02:33PM 37.0014 -95.3564 236° Southwest 401 461 36,000  Level Kansas City Center
02:34PM 36.9394 -95.4731 236° Southwest 402 463 36,000  Level Kansas City Center
02:35PM 36.8769 -95.5889 236° Southwest 404 465 36,000  Level Kansas City Center
02:36PM 36.8144 -95.7022 235° Southwest 401 461 36,000  Level Kansas City Center
02:37PM 36.7389 -95.8411 236° Southwest 405 466 36,000  Level Kansas City Center
02:38PM 36.6750 -95.9556 235° Southwest 404 465 36,000 -180 Level Kansas City Center
02:39PM 36.6125 -96.0708 236° Southwest 403 464 35,700 -900 Descending Kansas City Center
02:40PM 36.5489 -96.1858 235° Southwest 405 466 34,200 -1,500 Descending Kansas City Center
02:41PM 36.4864 -96.2992 236° Southwest 401 461 32,700 -1,560 Descending Kansas City Center
02:42PM 36.4225 -96.4156 236° Southwest 405 466 31,100 -1,800 Descending Kansas City Center
02:43PM 36.3572 -96.5319 235° Southwest 410 472 29,100 -2,160 Descending Kansas City Center
02:44PM 36.2800 -96.6708 235° Southwest 409 471 26,700 -2,100 Descending Kansas City Center
02:45PM 36.2203 -96.7758 235° Southwest 414 476 24,900 -1,860 Descending Kansas City Center
02:46PM 36.1575 -96.8869 235° Southwest 402 463 22,900 -2,220 Descending Kansas City Center
02:47PM 36.0856 -97.0164 236° Southwest 385 443 20,400 -2,280 Descending Kansas City Center
02:48PM 36.0239 -97.1244 235° Southwest 386 444 18,300 -2,040 Descending Kansas City Center
02:49PM 35.9350 -97.1981 214° Southwest 389 448 16,300 -2,100 Descending Kansas City Center
02:50PM 35.8336 -97.2728 211° Southwest 379 436 13,900 -2,460 Descending Fort Worth Center
02:51PM 35.7378 -97.3419 210° Southwest 343 395 11,000 -1,980 Descending Fort Worth Center
02:52PM 35.6689 -97.3906 210° Southwest 297 342 10,000 -1,560 Descending Fort Worth Center
02:53PM 35.6022 -97.4392 211° Southwest 275 316 8,000 -1,800 Descending Fort Worth Center
02:54PM 35.5314 -97.4825 206° Southwest 280 322 6,400 -1,680 Descending Fort Worth Center
02:55PM 35.4561 -97.5028 192° South 270 311 4,700 -1,440 Descending Fort Worth Center
02:56PM 35.3792 -97.5231 192° South 260 299 3,400 -840 Descending Fort Worth Center
02:57PM 35.3122 -97.5331 187° South 230 265 3,000 -240 Descending Fort Worth Center
02:58PM 35.2789 -97.5686 221° Southwest 198 228 3,000 -240 Level Fort Worth Center
02:59PM 35.3103 -97.5942 326° Northwest 135 155 2,600 -420 Descending Fort Worth Center